Location: Gulgong NSW 2852, Australia
(32.2976°S, 149.5548°E)
Time: 00:53:50
(UTC+11:00)

X-37B - Visible Passes

Search period start: 05 December 2021 00:00
Search period end: 15 December 2021 00:00
Orbit: 330 x 341 km, 45.0° (Epoch: 20 November)

Date Brightness Start Highest point End Pass type
(mag) Time Alt. Az. Time Alt. Az. Time Alt. Az.
08 Dec 2.9 04:55:10 10° N 04:56:51 15° NE 04:58:31 10° E visible
09 Dec 0.8 05:14:20 10° NW 05:17:05 52° NE 05:19:54 10° ESE visible
10 Dec 2.8 04:02:28 14° NE 04:02:28 14° NE 04:03:56 10° E visible
11 Dec 0.7 04:21:59 42° N 04:22:32 51° NE 04:25:20 10° ESE visible
12 Dec 1.2 04:41:26 21° W 04:42:58 41° SSW 04:45:43 10° SE visible
13 Dec 2.8 03:29:36 21° ESE 03:29:36 21° ESE 03:30:45 10° ESE visible
13 Dec 2.7 05:01:34 10° WSW 05:03:37 18° SSW 05:05:40 10° SSE visible
14 Dec 1.7 03:48:56 37° S 03:48:56 37° S 03:51:10 10° SE visible
